Retour au catalogue

SSTL S1-4

ActifScienceSSO
NORAD 43618·PAYLOAD·🇬🇧 United Kingdom

Lancé Sep 16, 2018 depuis Satish Dhawan Space Centre

Loading…

Prochains Passages (prochaines 24 heures)

TLE

FraisSource: Space-Track

Époque: Sep 14, 2026, 15:07 UTC

1 43618U 18071A   26257.63024068  .00000370  00000-0  36911-4 0  9994
2 43618  97.4867 125.4735 0002582 230.2758 129.8238 14.97018432436315

Suivez SSTL S1-4 en temps réel avec AllMySat

Download on the App Store